Home   Weather   Steffisburg   Past weeks
Flag for Switzerland

Past Weather in Steffisburg, Bern, Switzerland — Yesterday and Last 2 Weeks

Now
34 °F

Overcast.


Feels Like: 29 °F
Forecast: 51 / 39 °F
Wind: 6 mph from West

Location: Bern / Belp

Current Time: Feb 28, 2020 at 4:54:40 am

Latest Report: Feb 28, 2020 at 4:20 am


Visibility: N/A

Pressure: 30.09 "Hg (27.98 "Hg at 582m altitude)

Humidity: 70%

Dew Point: 25 °F

Location of SteffisburgLocation

Past Weather in Steffisburg — Graph

°F

Steffisburg Temperature Yesterday

Maximum temperature yesterday: 46 °F (at 5:20 pm)
Minimum temperature yesterday: 28 °F (at 6:50 am)
Average temperature yesterday: 35 °F

High & Low Weather Summary for the Past Weeks

 TemperatureHumidityPressure
High64 °F (Feb 23, 2:50 pm)100% (Feb 14, 9:20 pm)30.48 "Hg (Feb 14, 9:20 pm)
Low25 °F (Feb 13, 6:20 am)30% (Feb 23, 1:50 pm)29.47 "Hg (Feb 27, 3:50 pm)
Average42 °F76%30.14 "Hg
* Reported Feb 13 3:20 am — Feb 28 3:20 am, Steffisburg. Weather by CustomWeather, © 2020

Note: Actual official high and low records may vary slightly from our data, if they occured in-between our weather recording intervals... More about our weather records

Steffisburg Weather History for the Previous 24 Hours

Scroll right to see more
 ConditionsComfort  
Time TempWeatherWind HumidityBarometerVisibility
3:20 am
Fri, Feb 28
36 °FPassing clouds.13 mph65%30.07 "HgN/A
2:50 am36 °FPassing clouds.12 mph70%30.07 "HgN/A
2:20 am36 °FChilly.13 mph70%30.04 "HgN/A
1:50 am36 °FLight snow. Partly cloudy.13 mph75%30.04 "HgN/A
1:20 am36 °FPartly cloudy.8 mph70%30.01 "HgN/A
12:50 am34 °FPassing clouds.9 mph81%30.01 "HgN/A
12:20 am36 °FPassing clouds.10 mph75%29.98 "HgN/A
11:50 pm
Thu, Feb 27
34 °FLight snow. Fog.16 mph87%29.98 "Hg1 mi
11:20 pm39 °FPartly cloudy.12 mph65%29.92 "HgN/A
10:50 pm39 °FPartly cloudy.9 mph65%29.92 "HgN/A
10:20 pm39 °FPartly cloudy.10 mph70%29.89 "HgN/A
9:50 pm39 °FMostly cloudy.10 mph70%29.86 "HgN/A
9:20 pm39 °FLight rain. Partly cloudy.14 mph75%29.83 "HgN/A
8:50 pm39 °FPassing clouds.12 mph75%29.80 "HgN/A
8:20 pm39 °FPartly cloudy.15 mph81%29.77 "Hg3 mi
7:50 pm43 °FPartly cloudy.24 mph66%29.71 "Hg3 mi
7:20 pm43 °FPartly cloudy.23 mph81%29.65 "Hg3 mi
6:50 pm45 °FRain. Partly cloudy.21 mph76%29.59 "Hg3 mi
6:20 pm45 °FLight rain. Partly cloudy.16 mph76%29.53 "HgN/A
5:50 pm46 °FLight rain. Scattered clouds.14 mph71%29.50 "HgN/A
5:20 pm46 °FLight rain. Broken clouds.12 mph71%29.47 "HgN/A
4:50 pm41 °FDrizzle. Broken clouds.10 mph76%29.47 "HgN/A
4:20 pm34 °FDrizzle. Partly sunny.2 mph93%29.47 "HgN/A
3:50 pm34 °FLight snow. Broken clouds.2 mph93%29.47 "HgN/A
3:20 pm34 °FLight snow. Broken clouds.2 mph93%29.50 "HgN/A
2:50 pm34 °FSnow. Fog.3 mph93%29.50 "Hg2 mi
2:20 pm34 °FLight snow. Fog.3 mph93%29.50 "Hg2 mi
1:50 pm34 °FLight snow. Fog.3 mph93%29.53 "Hg1 mi
12:50 pm32 °FSnow. Dense fog.1 mph93%29.59 "Hg1 mi
12:20 pm34 °FLight snow. Partly sunny.7 mph81%29.62 "HgN/A
11:50 am36 °FBroken clouds.3 mph75%29.65 "HgN/A
11:20 am34 °FMostly cloudy.3 mph81%29.68 "HgN/A
10:50 am34 °FMostly cloudy.3 mph81%29.71 "HgN/A
10:20 am36 °FBroken clouds.2 mph75%29.71 "HgN/A
9:50 am32 °FBroken clouds.2 mph80%29.74 "HgN/A
9:20 am32 °FPartly sunny.2 mph80%29.77 "HgN/A
8:50 am30 °FPartly sunny.2 mph86%29.80 "HgN/A
8:20 am30 °FBroken clouds.2 mph86%29.80 "HgN/A
7:50 am28 °FBroken clouds.3 mph93%29.83 "HgN/A
7:20 am30 °FPartly sunny.3 mph86%29.83 "HgN/A
6:50 am28 °FPassing clouds.5 mph93%29.83 "HgN/A
6:20 am30 °FPartly cloudy.3 mph93%29.86 "HgN/A
5:50 am30 °FPassing clouds.2 mph93%29.89 "HgN/A
5:20 am30 °FPassing clouds.1 mph93%29.89 "HgN/A
4:50 am30 °FPartly cloudy.3 mph93%29.89 "HgN/A
4:20 am30 °FOvercast.5 mph93%29.89 "HgN/A
Weather by CustomWeather, © 2020

See weather overview

Advertising